Location: Newark
(44.7553°N, 4.6981°E)
Time: 03:11:42
(UTC+00:00)

Envisat - Visible Passes

Search period start: 14 November 2019 00:00
Search period end: 24 November 2019 00:00
Orbit: 764 x 766 km, 98.1° (Epoch: 13 November)

Date Brightness Start Highest point End Pass type
(mag) Time Alt. Az. Time Alt. Az. Time Alt. Az.
14 Nov 5.3 05:47:31 10° NE 05:51:54 28° E 05:56:15 10° SSE visible
14 Nov 3.3 17:03:39 10° SE 17:08:27 45° ENE 17:13:17 10° N visible
14 Nov 5.3 18:43:36 10° SSW 18:47:39 24° W 18:51:45 10° NW visible
15 Nov 6.2 05:12:19 10° ENE 05:14:44 13° E 05:17:07 10° ESE visible
15 Nov 3.9 18:05:44 10° S 18:10:40 51° W 18:15:37 10° NNW visible
16 Nov 2.9 17:28:48 10° SSE 17:33:51 76° ENE 17:38:57 10° N visible
16 Nov 6.0 19:10:51 10° WSW 19:13:27 14° W 19:16:04 10° WNW visible
17 Nov 5.7 05:36:32 10° NE 05:40:32 23° E 05:44:31 10° SE visible
17 Nov 3.5 16:52:38 10° SE 16:57:14 36° ENE 17:01:52 10° N visible
17 Nov 4.9 18:31:53 10° SSW 18:36:18 30° W 18:40:45 10° NW visible
18 Nov 6.6 05:02:43 10° E 05:03:18 10° E 05:03:52 10° E visible
18 Nov 3.4 17:54:20 10° S 17:59:21 64° WSW 18:04:25 10° NNW visible
19 Nov 4.7 06:01:28 10° NNE 06:06:13 39° E 06:10:57 10° SSE visible
19 Nov 3.0 17:17:37 10° SSE 17:22:36 61° ENE 17:27:37 10° N visible
19 Nov 5.7 18:58:41 10° SW 19:02:03 18° W 19:05:25 10° NW visible
20 Nov 5.9 05:25:39 10° NE 05:29:09 18° E 05:32:37 10° SE visible
20 Nov 3.8 16:41:42 10° SE 16:46:03 30° ENE 16:50:25 10° N visible
20 Nov 4.5 18:20:16 10° SSW 18:24:57 37° W 18:29:40 10° NNW visible
21 Nov 3.1 17:42:59 10° S 17:48:04 80° WSW 17:53:11 10° NNW visible
22 Nov 5.1 05:50:22 10° NNE 05:54:53 31° E 05:59:21 10° SSE visible
22 Nov 3.2 17:06:31 10° SE 17:11:22 49° ENE 17:16:16 10° N visible
22 Nov 5.4 18:46:45 10° SW 18:50:39 22° W 18:54:34 10° NW visible
23 Nov 6.1 05:14:58 10° NE 05:17:44 15° E 05:20:30 10° ESE visible
23 Nov 4.0 16:30:51 10° ESE 16:34:53 24° ENE 16:38:55 10° N visible
23 Nov 4.0 18:08:45 10° S 18:13:37 46° W 18:18:32 10° NNW visible
